Location: Enborne
(51.3833°N, 1.3667°W)
Time: 14:10:30
(UTC+00:00)

Cosmos 1844 Rocket - Pass Details

Date: 21 January 2021
Orbit: 826 x 843 km, 71.0° (Epoch: 05 March)

Event Time Altitude Azimuth Distance (km) Brightness Sun altitude
Rises 21:21:00 0° 272° (W) 3,399 6.5 -43.3°
Reaches altitude 10° 21:24:25 10° 293° (WNW) 2,465 5.7 -43.8°
Enters shadow 21:26:16 15° 311° (NW) 2,142 5.3 -44.1°
